Ephrata, WA
on Friday, January 4, 2013

Friday
Previous Day Next Day
Daily Summary
 ActualAverageRecord
Temperature
Mean Temperature °F 27°F  
Max Temperature 27°F 33°F 53°F (1990)
Min Temperature 20°F 21°F -10°F (1974)
Degree Days
Heating Degree Days 41 38  
Month to date heating degree days 161 153  
Since 1 July heating degree days 2416 2739  
Cooling Degree Days 0 0  
Month to date cooling degree days 0 0  
Year to date cooling degree days 0 0  
Moisture
Dew Point 19°F   
Average Humidity 79    
Maximum Humidity 84    
Minimum Humidity 74    
Precipitation
Precipitation 0.00 in 0.03 in 0.30 in (2010)
Month to date precipitation 0.00 0.13  
Year to date precipitation 0.00 0.13  
Wind
Wind Speed 6 mph   
Max Wind Speed 14 mph   
Max Gust Speed 16 mph   
Visibility 10 miles   
Events     

Key: T is trace of precipitation, MM is missing value
Source: NWS Daily Summary
Time(PST)TemperatureDew PointHumidity Pressure Visibility Wind DirectionWind SpeedGust SpeedPrecipitationEvents Conditions
12:22 AM 19.4°F 15.8°F 86% 30.36 in 10.0 miles NE 3.5 mph - N/A   Overcast
12:53 AM 21.0°F 17.1°F 85% 30.42 in 10.0 miles ENE 4.6 mph - N/A   Overcast
1:13 AM 19.4°F 15.8°F 86% 30.36 in 10.0 miles East 4.6 mph - N/A   Overcast
1:39 AM 21.2°F 15.8°F 80% 30.37 in 10.0 miles Calm Calm - N/A   Overcast
1:53 AM 21.0°F 17.1°F 85% 30.43 in 10.0 miles ENE 3.5 mph - N/A   Overcast
2:53 AM 21.0°F 17.1°F 85% 30.43 in 10.0 miles NNE 3.5 mph - N/A   Overcast
3:53 AM 21.0°F 17.1°F 85% 30.43 in 10.0 miles North 5.8 mph - N/A   Overcast
5:53 AM 21.9°F 17.1°F 82% 30.44 in 10.0 miles NNE 5.8 mph - N/A   Overcast
6:53 AM 21.9°F 18.0°F 85% 30.44 in 10.0 miles NNE 6.9 mph - N/A   Overcast
7:53 AM 23.0°F 18.0°F 81% 30.45 in 10.0 miles North 3.5 mph - N/A   Overcast
8:53 AM 23.0°F 18.0°F 81% 30.46 in 10.0 miles North 4.6 mph - N/A   Overcast
9:50 AM 24.8°F 17.6°F 74% 30.42 in 10.0 miles North 4.6 mph - N/A   Overcast
9:53 AM 24.1°F 18.0°F 77% 30.48 in 10.0 miles North 5.8 mph - N/A   Overcast
10:53 AM 25.0°F 19.0°F 78% 30.48 in 10.0 miles Calm Calm - N/A   Overcast
11:53 AM 25.0°F 19.0°F 78% 30.46 in 10.0 miles NNE 3.5 mph - N/A   Overcast
12:53 PM 26.1°F 19.9°F 78% 30.45 in 9.0 miles North 3.5 mph - N/A   Overcast
1:53 PM 26.1°F 19.9°F 78% 30.45 in 10.0 miles North 3.5 mph - N/A   Overcast
2:53 PM 27.0°F 19.9°F 75% 30.46 in 10.0 miles NNE 3.5 mph - N/A   Overcast
3:35 PM 26.6°F 19.4°F 74% 30.39 in 9.0 miles NNE 4.6 mph - N/A   Overcast
3:53 PM 26.1°F 19.9°F 78% 30.44 in 9.0 miles NE 4.6 mph - N/A   Overcast
4:53 PM 26.1°F 21.0°F 81% 30.45 in 9.0 miles Calm Calm - N/A   Overcast
5:53 PM 26.1°F 21.0°F 81% 30.45 in 10.0 miles North 5.8 mph - N/A   Overcast
6:53 PM 26.1°F 21.0°F 81% 30.45 in 10.0 miles NNW 4.6 mph - N/A   Overcast
7:53 PM 26.1°F 21.0°F 81% 30.44 in 10.0 miles North 8.1 mph - N/A   Overcast
8:53 PM 26.1°F 21.0°F 81% 30.45 in 10.0 miles North 10.4 mph - N/A   Overcast
9:53 PM 27.0°F 21.9°F 81% 30.45 in 10.0 miles NNW 10.4 mph - N/A   Overcast
10:53 PM 27.0°F 21.9°F 81% 30.45 in 10.0 miles North 10.4 mph - N/A   Overcast
11:29 PM 26.6°F 21.2°F 80% 30.38 in 10.0 miles North 12.7 mph - N/A   Overcast
11:53 PM 27.0°F 21.9°F 81% 30.43 in 10.0 miles North 13.8 mph - N/A   Overcast
Moon Phase
Jan. 04 Jan. 04 Jan. 11 Jan. 18 Jan. 26
Sunrise:07:44 AM (PST) Moon Rise:No Moon Rise/
Sunset:04:21 PM (PST) Moon Set:10:58 AM (PST)1/4

Copyright © 2014 The Weather Underground, Inc.